Regional Weather Roundup
Issued by NWS

Home | Current Version | Previous Version | Graphics & Text | Print | Product List | Glossary On
Versions: 1 2 3 4 5 6 7 8 9 10 11 12 13 14 15 16 17 18 19 20 21 22 23 24 25 26 27 28 29 30 31 32 33 34 35 36 37 38 39 40 41 42 43 44 45 46 47 48 49 50
795
ASUS43 KDMX 292008
RWRIA

WEATHER ROUNDUP FOR IOWA
NATIONAL WEATHER SERVICE DES MOINES IA
300 PM CDT FRI APR 29 2016

NOTE: "FAIR" INDICATES FEW OR NO CLOUDS BELOW 12,000 FEET WITH NO
SIGNIFICANT WEATHER AND/OR OBSTRUCTIONS TO VISIBILITY.

* - THESE STATIONS ARE NOT NWS STATIONS...THUS NOT UNDER NWS
QUALITY CONTROL.  THEY ALSO DO NOT REPORT WEATHER SUCH
AS PRECIPITATION OR FOG.

IAZ001>003-012>014-020>022-031>034-043>046-292100-
   NORTHWEST IOWA

CITY           SKY/WX    TMP DP  RH WIND       PRES   REMARKS
CARROLL *      CLOUDY    46  43  87 SE12      30.09F
CHEROKEE *     CLOUDY    46  41  81 NE10      30.11F
DENISON *      CLOUDY    46  41  81 E10       30.07F
LE MARS *      CLOUDY    46  39  76 NE13      30.12F
ORANGE CITY *  CLOUDY    46  39  76 E9        30.11F
SHELDON *      CLOUDY    46  41  81 SE9G17    30.11F
SIOUX CITY     CLOUDY    48  39  71 E12       30.10F
SPENCER        CLOUDY    47  38  71 E10       30.13S
STORM LAKE *   CLOUDY    45  41  87 NE18      30.10F
$$

IAZ055>058-069>071-079>083-090>094-292100-
   SOUTHWEST IOWA

CITY           SKY/WX    TMP DP  RH WIND       PRES   REMARKS
ATLANTIC *     CLOUDY    48  43  81 NE12      30.05F
AUDUBON *      PTSUNNY   48  43  81 E12       30.08F
CLARINDA *       N/A    N/A N/A N/A MISG        N/A
COUNCIL BLFS * CLOUDY    46  43  87 NE10G16   30.05F
CRESTON *      CLOUDY    50  45  81 E15       30.05F
HARLAN  *      CLOUDY    46  43  87 E12       30.10F
LAMONI         CLOUDY    51  44  77 E10G17    30.03F
RED OAK *      CLOUDY    50  45  81 NE10      30.04F
SHENANDOAH *   CLOUDY    52  46  82 NE14      30.03F
$$

IAZ047>049-059>061-072>074-084-292100-
   CENTRAL IOWA

CITY           SKY/WX    TMP DP  RH WIND       PRES   REMARKS
AMES           CLOUDY    48  40  73 E7        30.10S
ANKENY *       CLOUDY    48  43  81 E8        30.09F
BOONE *        CLOUDY    46  41  81 NE10      30.09F
CHARITON *     CLOUDY    50  45  81 NE9       30.07S
DES MOINES     CLOUDY    50  41  71 NE9       30.08F
GRINNELL*      CLOUDY    48  41  76 NE9       30.09F
KNOXVILLE *    CLOUDY    50  41  71 E8        30.07S
MARSHALLTOWN   CLOUDY    48  40  73 E9        30.10S
NEWTON *       CLOUDY    48  43  81 NE9       30.09F
PELLA *        CLOUDY    50  43  76 E6        30.10F
$$

IAZ004>006-015-016-023>025-035-036-292100-
   NORTH CENTRAL IOWA

CITY           SKY/WX    TMP DP  RH WIND       PRES   REMARKS
ALGONA *       CLOUDY    46  41  81 E12       30.14R
CLARION *      CLOUDY    46  39  76 E12       30.13S
ESTHERVILLE    CLOUDY    48  41  76 E14       30.12S
FORT DODGE *   CLOUDY    46  37  71 E13       30.12S
MASON CITY     CLOUDY    47  39  74 E9        30.14R
FOREST CITY *  CLOUDY    46  37  71 NE10      30.13S
WEBSTER CITY * CLOUDY    46  41  81 E10       30.10R
IOWA FALLS *   CLOUDY    48  39  71 E8        30.12F
$$

IAZ007>011-017>019-026>030-037>042-050>054-066-292100-
   NORTHEAST IOWA

CITY           SKY/WX    TMP DP  RH WIND       PRES   REMARKS
CEDAR RAPIDS   PTSUNNY   49  43  80 E3        30.10R
CHARLES CITY * CLOUDY    48  41  76 E9G15     30.13R
CLINTON *      CLOUDY    51  43  74 NE9       30.11S
DECORAH *      CLOUDY    50  37  62 E7G13     30.11R
DUBUQUE        CLOUDY    47  38  71 E9        30.11S
MONTICELLO *   CLOUDY    48  41  76 E7        30.11S
OELWEIN *      CLOUDY    48  39  71 E8        30.12S
WATERLOO       CLOUDY    48  37  65 E7        30.12R
$$

IAZ064-065-067-068-078-292100-
   EAST CENTRAL IOWA

CITY           SKY/WX    TMP DP  RH WIND       PRES   REMARKS
DAVENPORT      CLOUDY    51  41  68 E8        30.11R
IOWA CITY      CLOUDY    51  42  71 E7        30.11R
MT. PLEASANT * CLOUDY    54  46  76 NE7       30.10S
MUSCATINE *    CLOUDY    54  43  66 CALM      30.11R
QUAD CITIES    CLOUDY    52  41  66 VRB6      30.10R
$$

IAZ062-063-075>077-085>089-095>099-292100-
   SOUTHEAST IOWA

CITY           SKY/WX    TMP DP  RH WIND       PRES   REMARKS
BURLINGTON     CLOUDY    51  44  77 NE8       30.09S
FAIRFIELD *    CLOUDY    50  43  76 NE8       30.09S
FORT MADISON * CLOUDY    52  45  76 NE8       30.09F
KEOKUK *       CLOUDY    54  46  76 NE8       30.07F
OSKALOOSA *    CLOUDY    50  43  76 E7        30.09F
OTTUMWA        CLOUDY    49  42  77 E8        30.09S
WASHINGTON *   CLOUDY    50  45  81 NE7       30.11F
$$

ABBREVIATIONS USED IN REMARKS
   TC - TEMPERATURES IN CELSIUS
  WCI - WIND CHILL INDEX
   HX - HEAT INDEX
  VSB - VISIBILITY
$$





USA.gov is the U.S. government's official web portal to all federal, state and local government web resources and services.